Location: Azalea Creek
(37.1280°N, 119.2623°W)
Time: 18:34:32
(UTC+00:00)

STARLINK-1021 - Pass Details

Date: 17 February 2020
Orbit: 549 x 550 km, 53.0° (Epoch: 28 March)

Event Time Altitude Azimuth Distance (km) Brightness Sun altitude
Rises 02:38:44 0° 216° (SW) 2,699 7.8 -12.8°
Reaches altitude 10° 02:40:58 10° 212° (SSW) 1,810 6.8 -13.2°
Maximum altitude 02:45:00 57° 133° (SE) 646 3.7 -14.0°
Enters shadow 02:47:24 23° 62° (ENE) 1,193 4.8 -14.5°
